GLV1390 SBSV-SBPS

Flight info

Callsign GLV1390
Flight time 1h 0m
Altitude 34000
Route OSENI DCT RAIRA
Aircraft B738/M-SDE2E3FGHIRWXY/LB1

Departure

Time 2026-04-27 00:56
Airport Deputado Luiz Eduardo Magalhães International Airport (SBSV)

Arrival

Time 2026-04-27 01:57
Airport Porto Seguro International Airport (SBPS)
Time Latitude Longitude Altitude Speed Heading
2026-04-27 00:44 -12.91294 -38.33267 74 ft 0 kts 168°
2026-04-27 00:52 -12.91286 -38.33269 74 ft 2 kts 168°
2026-04-27 00:52 -12.91269 -38.33273 74 ft 3 kts 168°
2026-04-27 00:52 -12.91253 -38.33283 74 ft 3 kts 114°
2026-04-27 00:53 -12.91251 -38.33296 74 ft 0 kts 78°
2026-04-27 00:53 -12.91248 -38.33288 74 ft 3 kts 68°
2026-04-27 00:53 -12.91212 -38.33264 74 ft 13 kts
2026-04-27 00:54 -12.91144 -38.33342 74 ft 11 kts 286°
2026-04-27 00:54 -12.91137 -38.33412 74 ft 9 kts 269°
2026-04-27 00:54 -12.91146 -38.33469 74 ft 7 kts 258°
2026-04-27 00:54 -12.91145 -38.33516 74 ft 7 kts 289°
2026-04-27 00:55 -12.91108 -38.33542 74 ft 7 kts
2026-04-27 00:55 -12.91070 -38.33515 74 ft 6 kts 69°
2026-04-27 00:55 -12.91056 -38.33453 74 ft 30 kts 78°
2026-04-27 00:55 -12.90961 -38.32974 74 ft 106 kts 77°
2026-04-27 00:56 -12.90763 -38.32008 76 ft 169 kts 79°
2026-04-27 00:56 -12.90510 -38.30757 131 ft 189 kts 79°
2026-04-27 00:56 -12.90231 -38.29381 229 ft 206 kts 79°
2026-04-27 00:56 -12.89940 -38.27896 680 ft 222 kts 80°
2026-04-27 00:57 -12.89629 -38.26286 1225 ft 239 kts 80°
2026-04-27 00:57 -12.89303 -38.24592 1750 ft 247 kts 80°
2026-04-27 00:57 -12.89127 -38.22841 2215 ft 249 kts 94°
2026-04-27 00:57 -12.89647 -38.21169 2710 ft 250 kts 118°
2026-04-27 00:58 -12.90825 -38.19877 3207 ft 252 kts 143°
2026-04-27 00:58 -12.92447 -38.19212 3700 ft 255 kts 167°
2026-04-27 00:58 -12.94228 -38.19086 4242 ft 259 kts 177°
2026-04-27 00:58 -12.96025 -38.19149 4755 ft 261 kts 181°
2026-04-27 00:59 -12.97834 -38.19287 5253 ft 262 kts 182°
2026-04-27 00:59 -12.99650 -38.19448 5758 ft 263 kts 182°
2026-04-27 00:59 -13.01473 -38.19613 6262 ft 264 kts 182°
2026-04-27 00:59 -13.03302 -38.19779 6760 ft 265 kts 183°
2026-04-27 01:00 -13.05140 -38.19947 7267 ft 266 kts 183°
2026-04-27 01:00 -13.06994 -38.20116 7872 ft 268 kts 183°
2026-04-27 01:00 -13.08847 -38.20286 8494 ft 271 kts 184°
2026-04-27 01:00 -13.10732 -38.20460 9121 ft 273 kts 184°
2026-04-27 01:01 -13.12631 -38.20637 9746 ft 276 kts 184°
2026-04-27 01:01 -13.14549 -38.20868 10345 ft 282 kts 189°
2026-04-27 01:01 -13.16489 -38.21352 10864 ft 296 kts 195°
2026-04-27 01:01 -13.18489 -38.22005 11360 ft 309 kts 198°
2026-04-27 01:02 -13.20554 -38.22756 11831 ft 322 kts 199°
2026-04-27 01:02 -13.22701 -38.23559 12337 ft 333 kts 199°
2026-04-27 01:02 -13.24892 -38.24371 12946 ft 340 kts 199°
2026-04-27 01:02 -13.27139 -38.25191 13601 ft 345 kts 199°
2026-04-27 01:03 -13.29411 -38.26007 14260 ft 349 kts 199°
2026-04-27 01:03 -13.31716 -38.26827 14893 ft 354 kts 199°
2026-04-27 01:03 -13.34044 -38.27649 15560 ft 358 kts 199°
2026-04-27 01:03 -13.36418 -38.28483 16234 ft 362 kts 199°
2026-04-27 01:04 -13.38789 -38.29313 16842 ft 366 kts 199°
2026-04-27 01:04 -13.41224 -38.30163 17438 ft 371 kts 199°
2026-04-27 01:04 -13.43687 -38.31021 18003 ft 376 kts 200°
2026-04-27 01:04 -13.46168 -38.31883 18544 ft 381 kts 200°
2026-04-27 01:05 -13.48687 -38.32759 19135 ft 384 kts 200°
2026-04-27 01:05 -13.51221 -38.33638 19710 ft 387 kts 200°
2026-04-27 01:05 -13.53784 -38.34527 20182 ft 393 kts 200°
2026-04-27 01:05 -13.56386 -38.35429 20652 ft 398 kts 200°
2026-04-27 01:06 -13.59021 -38.36343 21114 ft 403 kts 200°
2026-04-27 01:06 -13.61689 -38.37270 21565 ft 408 kts 200°
2026-04-27 01:06 -13.64381 -38.38205 22004 ft 414 kts 200°
2026-04-27 01:06 -13.67136 -38.39164 22440 ft 419 kts 199°
2026-04-27 01:07 -13.69898 -38.40124 22866 ft 423 kts 199°
2026-04-27 01:07 -13.72704 -38.41101 23298 ft 428 kts 199°
2026-04-27 01:07 -13.75516 -38.42079 23747 ft 431 kts 199°
2026-04-27 01:07 -13.78357 -38.43068 24191 ft 434 kts 199°
2026-04-27 01:08 -13.81226 -38.44067 24586 ft 438 kts 198°
2026-04-27 01:08 -13.84125 -38.45077 25012 ft 441 kts 198°
2026-04-27 01:08 -13.87022 -38.46086 25449 ft 443 kts 197°
2026-04-27 01:08 -13.89932 -38.47101 26004 ft 441 kts 196°
2026-04-27 01:09 -13.92813 -38.48109 26639 ft 437 kts 197°
2026-04-27 01:09 -13.95686 -38.49136 27102 ft 438 kts 197°
2026-04-27 01:09 -13.98565 -38.50173 27497 ft 439 kts 197°
2026-04-27 01:09 -14.01418 -38.51203 28122 ft 435 kts 198°
2026-04-27 01:10 -14.04255 -38.52230 28794 ft 429 kts 197°
2026-04-27 01:10 -14.07042 -38.53241 29461 ft 423 kts 197°
2026-04-27 01:10 -14.09780 -38.54234 30122 ft 416 kts 198°
2026-04-27 01:10 -14.12515 -38.55224 30316 ft 423 kts 198°
2026-04-27 01:11 -14.15340 -38.56243 30088 ft 438 kts 197°
2026-04-27 01:11 -14.21166 -38.58340 30326 ft 449 kts 198°
2026-04-27 01:11 -14.24124 -38.59405 30510 ft 451 kts 198°
2026-04-27 01:12 -14.27071 -38.60468 30752 ft 451 kts 198°
2026-04-27 01:12 -14.33010 -38.62612 31145 ft 453 kts 198°
2026-04-27 01:12 -14.35978 -38.63686 31473 ft 450 kts 198°
2026-04-27 01:13 -14.38913 -38.64749 31885 ft 445 kts 198°
2026-04-27 01:13 -14.41803 -38.65796 32460 ft 437 kts 198°
2026-04-27 01:13 -14.44629 -38.66821 33067 ft 429 kts 198°
2026-04-27 01:13 -14.47406 -38.67829 33680 ft 420 kts 198°
2026-04-27 01:14 -14.50131 -38.68818 33990 ft 413 kts 198°
2026-04-27 01:14 -14.55621 -38.70806 34039 ft 426 kts 198°
2026-04-27 01:14 -14.58402 -38.71811 33720 ft 422 kts 198°
2026-04-27 01:15 -14.61150 -38.72805 33254 ft 421 kts 198°
2026-04-27 01:15 -14.63916 -38.73805 32733 ft 421 kts 198°
2026-04-27 01:15 -14.66677 -38.74805 32266 ft 420 kts 198°
2026-04-27 01:15 -14.69405 -38.75793 32025 ft 413 kts 198°
2026-04-27 01:16 -14.72074 -38.76762 31837 ft 405 kts 198°
2026-04-27 01:16 -14.74526 -38.77652 31662 ft 397 kts 198°
2026-04-27 01:16 -14.77093 -38.78585 31413 ft 390 kts 198°
2026-04-27 01:16 -14.79633 -38.79508 31008 ft 388 kts 198°
2026-04-27 01:17 -14.82171 -38.80430 30537 ft 387 kts 198°
2026-04-27 01:17 -14.84700 -38.81348 30084 ft 386 kts 199°
2026-04-27 01:17 -14.87230 -38.82266 29659 ft 384 kts 198°
2026-04-27 01:17 -14.89727 -38.83172 29250 ft 381 kts 198°
2026-04-27 01:18 -14.92217 -38.84076 28839 ft 379 kts 198°
2026-04-27 01:18 -14.94689 -38.84974 28424 ft 377 kts 198°
2026-04-27 01:18 -14.97156 -38.85871 28008 ft 374 kts 198°
2026-04-27 01:18 -14.99590 -38.86756 27594 ft 372 kts 198°
2026-04-27 01:19 -15.02027 -38.87642 27176 ft 370 kts 198°
2026-04-27 01:19 -15.04430 -38.88517 26762 ft 367 kts 198°
2026-04-27 01:19 -15.06828 -38.89390 26345 ft 365 kts 198°
2026-04-27 01:19 -15.09217 -38.90260 25930 ft 362 kts 198°
2026-04-27 01:20 -15.11581 -38.91120 25520 ft 360 kts 198°
2026-04-27 01:20 -15.13930 -38.91975 25111 ft 357 kts 198°
2026-04-27 01:20 -15.16252 -38.92821 24711 ft 354 kts 198°
2026-04-27 01:20 -15.18560 -38.93662 24308 ft 351 kts 198°
2026-04-27 01:21 -15.20853 -38.94497 23900 ft 349 kts 198°
2026-04-27 01:21 -15.23127 -38.95326 23492 ft 346 kts 198°
2026-04-27 01:21 -15.25381 -38.96148 23085 ft 343 kts 198°
2026-04-27 01:21 -15.27617 -38.96964 22678 ft 340 kts 198°
2026-04-27 01:22 -15.29840 -38.97775 22270 ft 337 kts 198°
2026-04-27 01:22 -15.32030 -38.98574 21864 ft 334 kts 198°
2026-04-27 01:22 -15.34206 -38.99369 21458 ft 331 kts 198°
2026-04-27 01:22 -15.36371 -39.00160 21051 ft 328 kts 198°
2026-04-27 01:23 -15.38506 -39.00939 20641 ft 325 kts 198°
2026-04-27 01:23 -15.40618 -39.01710 20231 ft 322 kts 198°
2026-04-27 01:23 -15.42721 -39.02478 19828 ft 320 kts 197°
2026-04-27 01:23 -15.44870 -39.03260 19433 ft 336 kts 198°
2026-04-27 01:24 -15.47088 -39.04066 19014 ft 343 kts 198°
2026-04-27 01:24 -15.49349 -39.04888 18568 ft 346 kts 198°
2026-04-27 01:24 -15.51615 -39.05714 18106 ft 344 kts 199°
2026-04-27 01:24 -15.53855 -39.06531 17650 ft 342 kts 199°
2026-04-27 01:25 -15.56095 -39.07350 17192 ft 340 kts 200°
2026-04-27 01:25 -15.58305 -39.08157 16734 ft 338 kts 200°
2026-04-27 01:25 -15.60510 -39.08963 16273 ft 336 kts 200°
2026-04-27 01:25 -15.62698 -39.09763 15815 ft 333 kts 200°
2026-04-27 01:26 -15.64897 -39.10502 15362 ft 331 kts 198°
2026-04-27 01:26 -15.67099 -39.11146 14904 ft 328 kts 196°
2026-04-27 01:26 -15.69258 -39.11735 14384 ft 314 kts 195°
2026-04-27 01:26 -15.71308 -39.12290 14008 ft 297 kts 195°
2026-04-27 01:27 -15.73249 -39.12816 13654 ft 292 kts 195°
2026-04-27 01:27 -15.75258 -39.13364 13314 ft 302 kts 195°
2026-04-27 01:27 -15.77301 -39.13924 12929 ft 303 kts 195°
2026-04-27 01:27 -15.79318 -39.14480 12533 ft 299 kts 195°
2026-04-27 01:28 -15.81277 -39.15023 12141 ft 285 kts 195°
2026-04-27 01:28 -15.83148 -39.15542 11772 ft 271 kts 195°
2026-04-27 01:28 -15.84949 -39.16043 11445 ft 275 kts 195°
2026-04-27 01:28 -15.86819 -39.16566 11134 ft 282 kts 195°
2026-04-27 01:29 -15.88713 -39.17096 10787 ft 281 kts 195°
2026-04-27 01:29 -15.90592 -39.17623 10436 ft 280 kts 195°
2026-04-27 01:29 -15.92454 -39.18146 10175 ft 278 kts 195°
2026-04-27 01:29 -15.94319 -39.18670 9983 ft 278 kts 195°
2026-04-27 01:30 -15.96178 -39.19193 9696 ft 277 kts 195°
2026-04-27 01:30 -15.98034 -39.19714 9376 ft 275 kts 195°
2026-04-27 01:30 -15.99873 -39.20231 9062 ft 274 kts 195°
2026-04-27 01:30 -16.01698 -39.20744 8756 ft 273 kts 195°
2026-04-27 01:31 -16.03519 -39.21255 8454 ft 271 kts 195°
2026-04-27 01:31 -16.05338 -39.21766 8155 ft 270 kts 195°
2026-04-27 01:31 -16.07142 -39.22273 7862 ft 269 kts 195°
2026-04-27 01:31 -16.08939 -39.22777 7572 ft 267 kts 195°
2026-04-27 01:32 -16.10727 -39.23279 7286 ft 266 kts 195°
2026-04-27 01:32 -16.12505 -39.23778 7002 ft 265 kts 195°
2026-04-27 01:32 -16.14276 -39.24276 6722 ft 264 kts 195°
2026-04-27 01:32 -16.16039 -39.24771 6444 ft 263 kts 195°
2026-04-27 01:33 -16.17789 -39.25263 6171 ft 261 kts 194°
2026-04-27 01:33 -16.19543 -39.25757 5899 ft 260 kts 194°
2026-04-27 01:33 -16.21282 -39.26246 5628 ft 258 kts 194°
2026-04-27 01:33 -16.22969 -39.26722 5364 ft 244 kts 194°
2026-04-27 01:34 -16.24541 -39.27167 5116 ft 226 kts 194°
2026-04-27 01:34 -16.26007 -39.27584 4863 ft 212 kts 194°
2026-04-27 01:34 -16.27355 -39.27968 4678 ft 192 kts 193°
2026-04-27 01:34 -16.28645 -39.28334 4489 ft 200 kts 193°
2026-04-27 01:35 -16.30010 -39.28717 4364 ft 207 kts 193°
2026-04-27 01:35 -16.31405 -39.29107 4251 ft 209 kts 193°
2026-04-27 01:35 -16.32809 -39.29500 4047 ft 210 kts 193°
2026-04-27 01:35 -16.34222 -39.29896 3818 ft 210 kts 193°
2026-04-27 01:36 -16.35629 -39.30290 3598 ft 211 kts 193°
2026-04-27 01:36 -16.37047 -39.30687 3370 ft 212 kts 193°
2026-04-27 01:36 -16.38473 -39.31085 3213 ft 211 kts 193°
2026-04-27 01:36 -16.39853 -39.31136 3100 ft 187 kts 168°
2026-04-27 01:37 -16.41030 -39.30623 3039 ft 190 kts 150°
2026-04-27 01:37 -16.42173 -39.29909 2906 ft 194 kts 146°
2026-04-27 01:37 -16.43311 -39.29157 2730 ft 194 kts 145°
2026-04-27 01:37 -16.44433 -39.28394 2572 ft 193 kts 144°
2026-04-27 01:38 -16.45546 -39.27624 2424 ft 192 kts 144°
2026-04-27 01:38 -16.46633 -39.26837 2268 ft 184 kts 140°
2026-04-27 01:38 -16.47275 -39.25834 2061 ft 159 kts 108°
2026-04-27 01:38 -16.47325 -39.24643 2073 ft 171 kts 85°
2026-04-27 01:39 -16.47160 -39.23413 2155 ft 170 kts 80°
2026-04-27 01:39 -16.46970 -39.22240 2104 ft 160 kts 79°
2026-04-27 01:39 -16.46773 -39.21121 2072 ft 157 kts 78°
2026-04-27 01:39 -16.46561 -39.20003 2061 ft 157 kts 77°
2026-04-27 01:40 -16.46337 -39.18892 2047 ft 157 kts 77°
2026-04-27 01:40 -16.46105 -39.17790 2027 ft 155 kts 76°
2026-04-27 01:40 -16.45870 -39.16720 1871 ft 151 kts 76°
2026-04-27 01:40 -16.45630 -39.15658 1421 ft 149 kts 76°
2026-04-27 01:41 -16.45387 -39.14618 1106 ft 148 kts 75°
2026-04-27 01:41 -16.45137 -39.13571 1073 ft 150 kts 75°
2026-04-27 01:41 -16.44883 -39.12526 1058 ft 150 kts 75°
2026-04-27 01:41 -16.44633 -39.11511 979 ft 140 kts 75°
2026-04-27 01:42 -16.44391 -39.10538 826 ft 138 kts 75°
2026-04-27 01:42 -16.44148 -39.09578 661 ft 138 kts 75°
2026-04-27 01:42 -16.43939 -39.08565 364 ft 157 kts 79°
2026-04-27 01:42 -16.43820 -39.07485 339 ft 140 kts 81°
2026-04-27 01:43 -16.43631 -39.06543 326 ft 136 kts 76°
2026-04-27 01:43 -16.43345 -39.05551 514 ft 151 kts 67°
2026-04-27 01:43 -16.42577 -39.04804 685 ft 157 kts 30°
2026-04-27 01:43 -16.41493 -39.04691 935 ft 160 kts 358°
2026-04-27 01:44 -16.40391 -39.04995 1284 ft 170 kts 345°
2026-04-27 01:44 -16.39238 -39.05348 1610 ft 177 kts 346°
2026-04-27 01:44 -16.38044 -39.05693 1916 ft 180 kts 345°
2026-04-27 01:44 -16.36957 -39.06330 1928 ft 183 kts 319°
2026-04-27 01:45 -16.36381 -39.07491 1951 ft 183 kts 283°
2026-04-27 01:45 -16.36401 -39.08788 2016 ft 180 kts 262°
2026-04-27 01:45 -16.36646 -39.10060 2026 ft 179 kts 256°
2026-04-27 01:45 -16.36877 -39.11322 2017 ft 179 kts 258°
2026-04-27 01:46 -16.37092 -39.12593 2202 ft 178 kts 258°
2026-04-27 01:46 -16.37299 -39.13854 2452 ft 177 kts 258°
2026-04-27 01:46 -16.37504 -39.15115 2703 ft 177 kts 258°
2026-04-27 01:46 -16.37710 -39.16373 2945 ft 176 kts 259°
2026-04-27 01:47 -16.37918 -39.17631 2989 ft 176 kts 259°
2026-04-27 01:47 -16.38125 -39.18881 2990 ft 176 kts 259°
2026-04-27 01:47 -16.38335 -39.20135 2990 ft 176 kts 259°
2026-04-27 01:47 -16.38545 -39.21393 2993 ft 176 kts 259°
2026-04-27 01:48 -16.38755 -39.22643 2992 ft 176 kts 259°
2026-04-27 01:48 -16.38966 -39.23897 2992 ft 176 kts 258°
2026-04-27 01:48 -16.39177 -39.25155 2991 ft 176 kts 259°
2026-04-27 01:48 -16.39387 -39.26409 2991 ft 176 kts 259°
2026-04-27 01:49 -16.39597 -39.27662 2990 ft 176 kts 259°
2026-04-27 01:49 -16.39807 -39.28915 2991 ft 176 kts 259°
2026-04-27 01:49 -16.40017 -39.30165 2992 ft 176 kts 259°
2026-04-27 01:49 -16.40235 -39.31417 2990 ft 176 kts 257°
2026-04-27 01:50 -16.40799 -39.32536 2847 ft 176 kts 229°
2026-04-27 01:50 -16.41854 -39.33117 2592 ft 174 kts 194°
2026-04-27 01:50 -16.43036 -39.32963 2354 ft 171 kts 162°
2026-04-27 01:50 -16.44021 -39.32372 2126 ft 159 kts 147°
2026-04-27 01:51 -16.44812 -39.31599 1885 ft 157 kts 130°
2026-04-27 01:51 -16.45421 -39.30665 1897 ft 156 kts 123°
2026-04-27 01:51 -16.46009 -39.29710 1903 ft 157 kts 123°
2026-04-27 01:51 -16.46594 -39.28756 1902 ft 157 kts 123°
2026-04-27 01:52 -16.47177 -39.27802 1906 ft 157 kts 123°
2026-04-27 01:52 -16.47743 -39.26837 1902 ft 157 kts 120°
2026-04-27 01:52 -16.48052 -39.25752 1880 ft 158 kts 101°
2026-04-27 01:52 -16.48034 -39.24614 1865 ft 158 kts 86°
2026-04-27 01:53 -16.47826 -39.23495 1806 ft 159 kts 79°
2026-04-27 01:53 -16.47549 -39.22384 1712 ft 158 kts 76°
2026-04-27 01:53 -16.47256 -39.21325 1683 ft 147 kts 76°
2026-04-27 01:53 -16.46991 -39.20320 1661 ft 143 kts 77°
2026-04-27 01:54 -16.46746 -39.19323 1555 ft 142 kts 77°
2026-04-27 01:54 -16.46503 -39.18327 1395 ft 141 kts 77°
2026-04-27 01:54 -16.46261 -39.17343 1212 ft 140 kts 76°
2026-04-27 01:54 -16.46023 -39.16370 1041 ft 137 kts 76°
2026-04-27 01:55 -16.45795 -39.15408 846 ft 138 kts 76°
2026-04-27 01:55 -16.45575 -39.14445 673 ft 136 kts 76°
2026-04-27 01:55 -16.45369 -39.13500 518 ft 134 kts 76°
2026-04-27 01:55 -16.45139 -39.12567 362 ft 132 kts 73°
2026-04-27 01:56 -16.44611 -39.10703 249 ft 142 kts 73°
2026-04-27 01:56 -16.44312 -39.09674 259 ft 150 kts 71°
2026-04-27 01:56 -16.43996 -39.08648 205 ft 138 kts 74°
2026-04-27 01:57 -16.43786 -39.07783 180 ft 108 kts 75°
2026-04-27 01:57 -16.43666 -39.07416 179 ft 27 kts 75°
2026-04-27 01:57 -16.43638 -39.07295 179 ft 4 kts 103°
2026-04-27 01:57 -16.43650 -39.07256 179 ft 7 kts 97°
2026-04-27 01:58 -16.43629 -39.07242 179 ft 6 kts 330°
2026-04-27 01:58 -16.43625 -39.07282 179 ft 6 kts 257°
2026-04-27 01:58 -16.43641 -39.07340 179 ft 10 kts 250°
2026-04-27 01:58 -16.43673 -39.07429 179 ft 15 kts 253°
2026-04-27 01:59 -16.43702 -39.07533 179 ft 15 kts 254°
2026-04-27 01:59 -16.43731 -39.07642 179 ft 16 kts 254°
2026-04-27 01:59 -16.43762 -39.07756 179 ft 17 kts 254°
2026-04-27 01:59 -16.43794 -39.07874 179 ft 17 kts 253°
2026-04-27 02:00 -16.43824 -39.07984 179 ft 15 kts 255°
2026-04-27 02:00 -16.43851 -39.08087 179 ft 12 kts 254°
2026-04-27 02:00 -16.43876 -39.08179 179 ft 15 kts 253°
2026-04-27 02:00 -16.43903 -39.08263 179 ft 9 kts 236°
2026-04-27 02:01 -16.43950 -39.08280 179 ft 7 kts 177°
2026-04-27 02:01 -16.43991 -39.08271 179 ft 6 kts 165°
2026-04-27 02:01 -16.44023 -39.08262 179 ft 4 kts 165°
2026-04-27 02:01 -16.44048 -39.08255 179 ft 3 kts 164°
2026-04-27 02:02 -16.44059 -39.08251 179 ft 0 kts 164°